TimeMDT,TemperatureF,Dew PointF,Humidity,Sea Level PressureIn,VisibilityMPH,Wind Direction,Wind SpeedMPH,Gust SpeedMPH,PrecipitationIn,Events,Conditions,WindDirDegrees,DateUTC
12:56 AM,42.1,39.9,92,29.65,-9999.0,South,11.5,17.3,N/A,,Unknown,180,2012-10-23 06:56:00
1:56 AM,41.0,39.9,96,29.61,-9999.0,SSE,10.4,-,N/A,,Unknown,160,2012-10-23 07:56:00
2:56 AM,42.1,39.9,92,29.62,-9999.0,South,18.4,-,N/A,,Unknown,180,2012-10-23 08:56:00
3:56 AM,41.0,39.9,96,29.57,-9999.0,SSE,8.1,-,N/A,,Unknown,150,2012-10-23 09:56:00
4:56 AM,41.0,39.9,96,29.57,-9999.0,SSE,9.2,-,N/A,,Unknown,160,2012-10-23 10:56:00
5:56 AM,41.0,39.9,96,29.62,-9999.0,West,6.9,-,N/A,,Unknown,260,2012-10-23 11:56:00
6:56 AM,39.9,39.9,100,29.61,-9999.0,West,5.8,-,N/A,,Unknown,270,2012-10-23 12:56:00
7:56 AM,41.0,41.0,100,29.61,-9999.0,Calm,Calm,-,N/A,,Unknown,0,2012-10-23 13:56:00
9:56 AM,43.0,42.1,97,29.65,-9999.0,NW,19.6,-,0.03,,Unknown,310,2012-10-23 15:56:00
10:56 AM,43.0,42.1,97,29.70,-9999.0,NW,13.8,-,0.11,,Unknown,320,2012-10-23 16:56:00
11:56 AM,43.0,42.1,97,29.70,-9999.0,NW,24.2,28.8,0.03,,Unknown,320,2012-10-23 17:56:00
12:56 PM,45.0,43.0,93,29.67,-9999.0,North,13.8,-,0.04,,Unknown,10,2012-10-23 18:56:00
1:56 PM,45.0,42.1,90,29.73,-9999.0,WNW,19.6,-,N/A,,Unknown,300,2012-10-23 19:56:00
2:56 PM,45.0,41.0,86,29.73,-9999.0,NW,21.9,-,N/A,,Unknown,320,2012-10-23 20:56:00
3:56 PM,44.1,39.0,82,29.76,-9999.0,NW,17.3,-,N/A,,Unknown,320,2012-10-23 21:56:00
4:56 PM,43.0,37.9,82,29.79,-9999.0,NW,16.1,-,N/A,,Unknown,320,2012-10-23 22:56:00
5:56 PM,41.0,37.0,86,29.83,-9999.0,NW,17.3,-,N/A,,Unknown,320,2012-10-23 23:56:00
6:56 PM,39.9,35.1,83,29.83,-9999.0,NNW,11.5,-,N/A,,Unknown,330,2012-10-24 00:56:00
7:56 PM,37.9,34.0,86,29.83,-9999.0,NNW,12.7,-,N/A,,Unknown,330,2012-10-24 01:56:00
8:56 PM,36.0,33.1,89,29.89,-9999.0,West,6.9,-,N/A,,Unknown,270,2012-10-24 02:56:00
9:56 PM,37.0,32.0,82,29.90,-9999.0,WNW,6.9,-,N/A,,Unknown,300,2012-10-24 03:56:00
10:56 PM,36.0,32.0,86,29.88,-9999.0,WNW,4.6,-,N/A,,Unknown,290,2012-10-24 04:56:00
11:56 PM,35.1,30.9,85,29.88,-9999.0,NNW,6.9,-,N/A,,Unknown,340,2012-10-24 05:56:00